Regional Weather Roundup
Issued by NWS

Home | Current Version | Previous Version | Text Only | Print | Product List | Glossary On
Versions: 1 2 3 4 5 6 7 8 9 10 11 12 13 14 15 16 17 18 19 20 21 22 23 24 25 26 27
000
ASUS44 KJAN 161310
RWRMS

MISSISSIPPI HOURLY WEATHER ROUNDUP
NATIONAL WEATHER SERVICE JACKSON MS
700 AM CST TUE JAN 16 2018

NOTE: "FAIR: INDICATES FEW OR NO CLOUDS BELOW 12,000 FEET WITH NO
SIGNIFICANT WEATHER AND/OR OBSTRUCTIONS TO VISIBILITY.

MSZ001>002-007>008-010>013-018>021-025>028-034>036-161400-
NORTHWEST MISSISSIPPI

CITY           SKY/WX    TMP DP  RH WIND       PRES   REMARKS
BATESVILLE     LGT SNOW  19  13  76 N9G16     30.65R WCI   8
CLARKSDALE     CLOUDY    18  16  93 N13G22    30.68R FOG     WCI   4
CLEVELAND      LGT SNOW  19  17  89 N24       30.66R WCI   2
GREENWOOD      LGT SNOW  22  18  85 N10G20    30.61R FOG     WCI  11
GREENVILLE     LGT SNOW  20  15  81 N21       30.66R WCI   4
OLIVE BRANCH   LGT SNOW  12  12 100 N14G22    30.63  WCI  -3
OXFORD         FLURRIES  18  12  79 N9G18     30.62R WCI   6
TUNICA           N/A     18  12  79 N14       30.69R WCI   4
WINONA         LGT SNOW  25  22  89 N10       30.56R WCI  15
$$

MSZ003>006-009-014>017-022>024-029>033-037>039-161400-
NORTHEAST MISSISSIPPI

CITY           SKY/WX    TMP DP  RH WIND       PRES   REMARKS
ABERDEEN       DRIZZLE   28  28 100 N16       30.54S WCI  17
COLUMBUS AFB   CLOUDY   N/A N/A N/A N17       30.52R
CORINTH        LGT SNOW  19  14  79 N7G14     30.59R WCI  10
GOLDN TRIANGLE CLOUDY    29  23  78 N12       30.52R WCI  19
STARKVILLE     CLOUDY    30  25  80 NW9       30.53R WCI  22
TUPELO         FLURRIES  23  18  81 NW14      30.57R WCI  11
$$

MSZ040-058-161400-
CENTRAL MISSISSIPPI

CITY           SKY/WX    TMP DP  RH WIND       PRES   REMARKS
JACKSON INTL   CLOUDY    30  25  81 N15       30.52R WCI  19
JACKSON HAWKNS CLOUDY    29  25  85 N10       30.54R WCI  20
MADISON        CLOUDY    28  25  86 NW9G20    30.53R WCI  20
MERIDIAN KEY   CLOUDY    34  29  82 N10       30.48S WCI  26
MERIDIAN NAS   CLOUDY    33  28  81 N9        30.50R WCI  25
RAYMOND        DRIZZLE   28  25  86 N14       30.55R WCI  17
VICKSBURG VKS  CLOUDY    28  23  80 N18G24    30.60R HAZE    WCI  16
$$

MSZ059>079-161400-
SOUTH MISSISSIPPI

CITY           SKY/WX    TMP DP  RH WIND       PRES   REMARKS
COLUMBIA       CLOUDY    36  30  80 N8        30.50R WCI  29
HATTIESBURG    CLOUDY    36  34  92 N9        30.45R WCI  29
LAUREL         FAIR      32  29  90 N7        30.48R WCI  26
MCCOMB         MOCLDY    37  31  78 N10       30.45R WCI  30
NATCHEZ        CLOUDY    30  26  85 N16G25    30.55R WCI  19
PINE BELT      MOCLDY    33  29  85 N13G21    30.46R WCI  24
$$

MSZ080>082-161400-
COASTAL MISSISSIPPI

CITY           SKY/WX    TMP DP  RH WIND       PRES   REMARKS
BAY ST LOUIS   PTCLDY    36  34  93 CALM      30.40
BILOXI         FAIR      43  38  84 CALM      30.38F
PASCAGOULA     FAIR      37  35  92 CALM      30.40F
GULFPORT       FAIR      40  38  93 NW3       30.39S
$$

LAZ007>009-015>016-023>026-161400-
NORTHEAST LOUISIANA

CITY           SKY/WX    TMP DP  RH WIND       PRES   REMARKS
BASTROP        LGT SNOW  24  23  96 CALM      30.65R
TALLULAH/VBURG LGT SNOW  26  24  92 N13G24    30.61R FOG     WCI  15
VIDALIA        CLOUDY    32  27  81 MISG      30.55R
$$




USA.gov is the U.S. government's official web portal to all federal, state and local government web resources and services.